User: anonymous   Login
Location: Unspecified
(0.0000°N, 0.0000°E)
Time: 07:49:12
(UTC+00:00)
Language:

STARLINK-11103 [DTC] - Orbit

View from above orbital plane
View from above orbital plane
View from above satellite
View from above satellite

Ground track
Ground track

The orbit is defined by the following mean orbital elements,

1 59718U          26144.76588455 +.00000000 +00000-0 +69871-5 0 00004
2 59718  53.1582 311.0356 0000620  74.9450 285.1637 15.69709098    08
Epoch (UTC): 24 May 2026 18:22:52
Eccentricity: 0.0000620
inclination: 53.1582°
perigee height: 359 km
apogee height: 360 km
right ascension of ascending node: 311.0356°
argument of perigee: 74.9450°
revolutions per day: 15.69709098
mean anomaly at epoch: 285.1637°

The dashed part of the orbit path shows where the satellite is in the earth's shadow,  

DLR